This demonstration page uses our WeatherBlox Daily Observations layout. Learn more.

Left ArrowRight Arrow

Hourly Observations for September 8, 2021

Temp ( °F °C ) Dew Point ( °F °C ) Humidity (%) Winds ( mph kmh ) Pressure ( in mb ) Visibility ( mi km ) Precip ( " mm )
12:15 am 00:15 Clear 57 14.1 53 11.7 86 86 N N/A 30.10 1019 10 16 N/A
12:35 am 00:35 Clear 57 14.1 53 11.7 86 86 N N/A 30.10 1019 10 16 N/A
12:55 am 00:55 Clear 57 13.7 53 11.9 89 89 N N/A 30.10 1019 10 16 N/A
1:15 am 01:15 Clear 56 13.4 53 11.4 88 88 N N/A 30.10 1019 10 16 N/A
1:35 am 01:35 Clear 57 13.9 53 11.6 86 86 N N/A 30.11 1020 10 16 N/A
1:55 am 01:55 Clear 56 13.5 53 11.5 88 88 N N/A 30.11 1020 10 16 N/A
2:15 am 02:15 Clear 56 13.5 53 11.5 88 88 N N/A 30.11 1020 10 16 N/A
2:35 am 02:35 Clear 56 13.2 52 11.3 88 88 N N/A 30.11 1020 10 16 N/A
2:55 am 02:55 Clear 55 13 53 11.5 91 91 W 3 6 30.12 1020 10 16 N/A
3:15 am 03:15 Clear 55 12.7 51 10.7 88 88 WSW 3 6 30.12 1020 10 16 N/A
3:35 am 03:35 Clear 55 12.8 51 10.5 86 86 N N/A 30.12 1020 10 16 N/A
3:55 am 03:55 Clear 55 12.5 50 10.2 86 86 N N/A 30.12 1020 10 16 N/A
4:15 am 04:15 Clear 54 12 51 10.3 89 89 N N/A 30.13 1020 10 16 N/A
4:35 am 04:35 Clear 53 11.7 50 10.2 91 91 N N/A 30.13 1020 10 16 N/A
4:55 am 04:55 Clear 54 12 51 10.5 91 91 W 3 6 30.13 1020 10 16 N/A
5:15 am 05:15 Clear 54 12 50 10 88 88 N N/A 30.13 1020 10 16 N/A
5:35 am 05:35 Clear 54 12.2 50 10.2 88 88 W 3 6 30.12 1020 10 16 N/A
5:55 am 05:55 Clear 54 12.1 49 9.7 85 85 N N/A 30.12 1020 10 16 N/A
6:15 am 06:15 Clear 52 11.3 49 9.6 89 89 N N/A 30.13 1020 10 16 N/A
6:35 am 06:35 Clear 53 11.4 49 9.5 88 88 N N/A 30.13 1020 10 16 N/A
6:55 am 06:55 Clear 52 11.1 49 9.7 91 91 N N/A 30.14 1021 10 16 N/A
7:15 am 07:15 Sunny 52 11.1 49 9.7 91 91 WNW 3 6 30.14 1021 10 16 N/A
7:35 am 07:35 Sunny 52 11.3 49 9.6 89 89 N N/A 30.14 1021 10 16 N/A
7:55 am 07:55 Sunny 54 12 50 10.1 88 88 WNW 5 7 30.15 1021 10 16 N/A
8:15 am 08:15 Sunny 56 13.2 51 10.5 84 84 WNW 3 6 30.13 1020 10 16 N/A
8:35 am 08:35 Sunny 57 14.1 53 11.5 84 84 N N/A 30.13 1020 10 16 N/A
8:55 am 08:55 Sunny 60 15.3 54 12.1 81 81 N N/A 30.12 1020 10 16 N/A
9:15 am 09:15 Sunny 62 16.5 55 12.6 78 78 N N/A 30.11 1020 10 16 N/A
9:35 am 09:35 Sunny 64 17.6 55 12.5 72 72 WNW 3 6 30.10 1019 10 16 N/A
9:55 am 09:55 Sunny 66 18.8 55 13 69 69 W 5 7 30.09 1019 10 16 N/A
10:15 am 10:15 Sunny 68 20.2 56 13.4 65 65 WNW 5 7 30.08 1018 10 16 N/A
10:35 am 10:35 Sunny 71 21.5 54 12.1 55 55 W 6 9 30.06 1018 10 16 N/A
10:55 am 10:55 Sunny 73 22.5 54 12 52 52 W 6 9 30.06 1018 10 16 N/A
11:15 am 11:15 Sunny 74 23.6 51 10.7 44 44 W 7 11 30.05 1018 10 16 N/A
11:55 am 11:55 Sunny 77 24.8 51 10.5 41 41 WSW 8 13 30.04 1017 10 16 N/A
12:15 pm 12:15 Sunny 78 25.3 49 9.5 37 37 SW 7 11 30.02 1017 10 16 N/A
12:35 pm 12:35 Sunny 78 25.5 50 10 38 38 W 6 9 30.02 1017 10 16 N/A
12:55 pm 12:55 Sunny 79 26 49 9.6 36 36 SW 9 15 30.01 1016 10 16 N/A
1:15 pm 13:15 Sunny 79 26.3 48 8.7 33 33 SW 7 11 30.01 1016 10 16 N/A
1:35 pm 13:35 Sunny 80 26.4 49 9.2 34 34 SSW 6 9 29.99 1016 10 16 N/A
1:55 pm 13:55 Sunny 80 26.5 49 9.5 34 34 SW 8 13 29.99 1016 10 16 N/A
2:15 pm 14:15 Sunny 81 27 48 8.7 32 32 SSW 5 7 29.98 1015 10 16 N/A
2:35 pm 14:35 Sunny 81 27.1 49 9.2 32 32 SW 8 13 29.97 1015 10 16 N/A
2:55 pm 14:55 Sunny 81 27.2 48 9.1 32 32 SSW 8 13 29.97 1015 10 16 N/A
3:15 pm 15:15 Sunny 81 27 48 8.8 32 32 SW 5 7 29.95 1014 10 16 N/A
3:55 pm 15:55 Sunny 82 27.5 50 9.9 33 33 N N/A 29.93 1013 10 16 N/A
4:15 pm 16:15 Sunny 82 27.6 49 9.3 32 32 N N/A 29.93 1013 10 16 N/A
4:35 pm 16:35 Sunny 82 28 50 9.8 32 32 SW 3 6 29.91 1013 10 16 N/A
4:55 pm 16:55 Sunny 82 28 50 9.9 32 32 S 6 9 29.91 1013 10 16 N/A
5:15 pm 17:15 Sunny 82 27.8 49 9.7 32 32 SSE 5 7 29.90 1013 10 16 N/A
5:35 pm 17:35 Sunny 82 27.8 51 10.6 34 34 ESE 6 9 29.90 1013 10 16 N/A
5:55 pm 17:55 Sunny 81 27.4 51 10.4 35 35 ESE 6 9 29.91 1013 10 16 N/A
6:15 pm 18:15 Sunny 81 27.1 53 11.7 38 38 E 5 7 29.91 1013 10 16 N/A
6:35 pm 18:35 Sunny 79 25.9 56 13.6 47 47 E 6 9 29.92 1013 10 16 N/A
6:55 pm 18:55 Sunny 77 24.9 58 14.3 52 52 E 7 11 29.92 1013 10 16 N/A
7:15 pm 19:15 Sunny 75 24 58 14.6 56 56 E 7 11 29.92 1013 10 16 N/A
7:35 pm 19:35 Sunny 72 22.4 58 14.6 61 61 E 8 13 29.94 1014 10 16 N/A
7:55 pm 19:55 Sunny 69 20.7 59 15.1 70 70 E 8 13 29.95 1014 10 16 N/A
8:15 pm 20:15 Clear 69 20.8 58 14.3 66 66 E 7 11 29.96 1015 10 16 N/A
8:35 pm 20:35 Clear 68 20.2 58 14.3 69 69 E 7 11 29.97 1015 10 16 N/A
8:55 pm 20:55 Clear 66 18.8 58 14.6 77 77 E 7 11 29.99 1015 10 16 N/A
9:15 pm 21:15 Clear 66 18.8 58 14.4 76 76 ESE 5 7 29.99 1015 10 16 N/A
9:35 pm 21:35 Clear 64 17.7 59 14.8 83 83 ESE 5 7 30.01 1016 10 16 N/A
9:55 pm 21:55 Clear 63 17.1 58 14.6 85 85 ESE 5 7 30.01 1016 10 16 N/A
10:15 pm 22:15 Clear 64 17.5 58 14.2 81 81 ESE 5 7 30.02 1017 10 16 N/A
10:35 pm 22:35 Clear 64 17.5 56 13.4 77 77 E 7 11 30.02 1017 10 16 N/A
10:55 pm 22:55 Clear 63 17.1 56 13.3 78 78 E 7 11 30.02 1017 10 16 N/A
11:15 pm 23:15 Clear 63 17 56 13.5 80 80 E 9 15 30.02 1017 10 16 N/A
11:35 pm 23:35 Clear 62 16.5 55 12.6 78 78 NE 8 13 30.04 1017 10 16 N/A
11:55 pm 23:55 Clear 61 15.9 55 13 83 83 ENE 8 13 30.04 1017 10 16 N/A

Powered by AerisWeather